GW1804 Weather Reports


time (UTC)temp
C
wind
direction
speed
KPH
gust
KPH
rain 1hr
cm
rain 24hr
cm
rain mn
cm
humidity
%
barometer
mb
20260505051036 15 315 8.0 17.7 0.00 0.00 0.00 85 1015.2
20260505050536 15 294 6.4 14.5 0.00 0.00 0.00 85 1015.2
20260505041545 15 286 9.7 20.9 0.00 0.00 0.00 83 1015.2
20260505041034 16 292 8.0 20.9 0.00 0.00 0.00 82 1015.1
20260505040539 16 306 11.3 20.9 0.00 0.00 0.00 81 1015.1
20260505040053 16 309 4.8 12.9 0.00 0.00 0.00 78 1015.0
20260505035534 16 265 1.6 9.7 0.00 0.00 0.00 76 1015.1
20260505035036 16 250 3.2 11.3 0.00 0.00 0.00 76 1015.1
20260505034547 16 256 3.2 11.3 0.00 0.00 0.00 75 1015.1
20260505034035 16 254 6.4 12.9 0.00 0.00 0.00 75 1015.0
20260505033535 16 244 6.4 12.9 0.00 0.00 0.00 76 1015.0
20260505033048 16 313 3.2 11.3 0.00 0.00 0.00 77 1014.9
20260505032535 16 248 4.8 11.3 0.00 0.00 0.00 77 1015.0
20260505032034 16 304 3.2 11.3 0.00 0.00 0.00 78 1015.1
20260505031550 16 270 3.2 12.9 0.00 0.00 0.00 78 1014.9
20260505031035 16 309 4.8 12.9 0.00 0.00 0.00 78 1014.8
20260505030535 16 265 4.8 11.3 0.00 0.00 0.00 78 1014.7
20260505030052 16 294 3.2 9.7 0.00 0.00 0.00 78 1014.8
20260505025538 16 265 3.2 9.7 0.00 0.00 0.00 77 1014.7
20260505025031 16 324 4.8 9.7 0.00 0.00 0.00 77 1014.6
20260505024547 16 265 3.2 11.3 0.00 0.00 0.00 77 1014.5
20260505024032 16 279 3.2 11.3 0.00 0.00 0.00 77 1014.5
20260505023534 16 275 3.2 11.3 0.00 0.00 0.00 76 1014.6
20260505023055 16 292 4.8 11.3 0.00 0.00 0.00 76 1014.6
20260505022535 16 275 3.2 12.9 0.00 0.00 0.00 76 1014.7
20260505022039 16 270 4.8 12.9 0.00 0.00 0.00 76 1014.7
20260505021546 16 281 4.8 12.9 0.00 0.00 0.00 76 1014.7
20260505021035 16 254 6.4 12.9 0.00 0.00 0.00 76 1014.9
20260505020538 16 294 4.8 14.5 0.00 0.00 0.00 76 1014.7
20260505020047 16 261 4.8 14.5 0.00 0.00 0.00 76 1014.8
20260505015535 16 236 4.8 14.5 0.00 0.00 0.00 75 1014.7
20260505015035 16 263 6.4 14.5 0.00 0.00 0.00 75 1014.7
20260505014544 17 254 8.0 14.5 0.00 0.00 0.00 75 1014.7
20260505014034 17 270 6.4 14.5 0.00 0.00 0.00 76 1014.8
20260505013531 17 286 4.8 14.5 0.00 0.00 0.00 75 1015.0
20260505013051 17 250 6.4 17.7 0.00 0.00 0.00 75 1015.0
20260505012534 17 315 6.4 17.7 0.00 0.00 0.00 74 1015.0
20260505012032 17 277 8.0 17.7 0.00 0.00 0.00 74 1014.8
20260505011553 17 320 8.0 16.1 0.00 0.00 0.00 74 1014.9
20260505011039 17 269 8.0 14.5 0.00 0.00 0.00 74 1014.9
20260505010531 17 312 6.4 14.5 0.00 0.00 0.00 73 1015.0
20260505010050 17 284 8.0 14.5 0.00 0.00 0.00 72 1015.0
20260505005532 17 221 6.4 14.5 0.00 0.00 0.00 71 1015.1
20260505005035 18 304 6.4 16.1 0.00 0.00 0.00 70 1015.1
20260505004547 18 290 8.0 16.1 0.00 0.00 0.00 70 1015.1
20260505004032 18 206 9.7 16.1 0.00 0.00 0.00 70 1015.0
20260505003537 18 252 8.0 19.3 0.00 0.00 0.00 69 1015.2
20260505003044 18 284 6.4 19.3 0.00 0.00 0.00 70 1015.2
20260505002533 18 299 6.4 14.5 0.00 0.00 0.00 69 1015.2
20260505002032 18 312 8.0 19.3 0.00 0.00 0.00 70 1015.1
20260505001548 18 307 9.7 20.9 0.00 0.00 0.00 70 1015.1
20260505001034 18 247 11.3 20.9 0.00 0.00 0.00 69 1015.1
20260505000531 18 243 9.7 17.7 0.00 0.00 0.00 68 1015.1
20260505000044 18 267 9.7 17.7 0.00 0.00 0.00 68 1015.0
20260504235531 19 281 8.0 16.1 0.00 0.00 0.00 68 1015.1
20260504235032 18 261 9.7 19.3 0.00 0.00 0.00 68 1015.1
20260504234548 18 232 9.7 20.9 0.00 0.00 0.00 66 1015.1
20260504234036 18 295 8.0 20.9 0.00 0.00 0.00 69 1015.1
20260504233540 18 313 8.0 20.9 0.00 0.00 0.00 72 1015.1
20260504233049 17 240 9.7 20.9 0.00 0.00 0.00 71 1015.2
20260504232534 18 310 8.0 17.7 0.00 0.00 0.00 69 1015.2
20260504232035 18 228 9.7 19.3 0.00 0.00 0.00 70 1015.2
20260504231543 18 306 9.7 19.3 0.00 0.00 0.00 69 1015.1
20260504231034 18 315 9.7 22.5 0.00 0.00 0.00 66 1015.1
20260504230535 18 298 9.7 22.5 0.00 0.00 0.00 65 1015.1
20260504230047 18 265 9.7 19.3 0.00 0.00 0.00 65 1015.1
20260504225535 19 248 12.9 19.3 0.00 0.00 0.00 66 1015.1
20260504225038 19 268 8.0 20.9 0.00 0.00 0.00 67 1015.0
20260504224543 18 290 9.7 20.9 0.00 0.00 0.00 66 1015.0
20260504224031 18 288 9.7 22.5 0.00 0.00 0.00 67 1015.1
20260504223531 19 273 11.3 22.5 0.00 0.00 0.00 66 1015.1
20260504223044 18 247 9.7 17.7 0.00 0.00 0.00 65 1015.1
20260504222532 18 296 11.3 17.7 0.00 0.00 0.00 68 1015.1
20260504222031 18 301 9.7 17.7 0.00 0.00 0.00 67 1015.2
20260504221546 18 265 11.3 17.7 0.00 0.00 0.00 66 1015.3
20260504221031 19 281 8.0 20.9 0.00 0.00 0.00 68 1015.3
20260504220535 19 281 11.3 20.9 0.00 0.00 0.00 69 1015.5
20260504220107 19 292 11.3 20.9 0.00 0.00 0.00 68 1015.6
20260504215533 19 246 9.7 19.3 0.00 0.00 0.00 68 1015.6
20260504215125 19 306 9.7 19.3 0.00 0.00 0.00 68 1015.6
20260504214555 19 247 9.7 20.9 0.00 0.00 0.00 68 1015.5
20260504214034 19 308 9.7 24.1 0.00 0.00 0.00 69 1015.7
20260504213534 19 307 9.7 24.1 0.00 0.00 0.00 68 1015.8
20260504213053 19 294 9.7 19.3 0.00 0.00 0.00 68 1015.8
20260504212532 19 290 8.0 17.7 0.00 0.00 0.00 70 1015.7
20260504212032 18 324 9.7 17.7 0.00 0.00 0.00 69 1015.8
20260504211555 19 311 11.3 22.5 0.00 0.00 0.00 68 1015.9
20260504211034 19 298 9.7 22.5 0.00 0.00 0.00 67 1015.9
20260504210531 19 282 9.7 19.3 0.00 0.00 0.00 67 1015.9
20260504210048 19 242 9.7 19.3 0.00 0.00 0.00 66 1015.9
20260504205530 19 277 8.0 20.9 0.00 0.00 0.00 67 1016.0
20260504205031 19 258 9.7 22.5 0.00 0.00 0.00 67 1016.0
20260504204546 19 238 6.4 22.5 0.00 0.00 0.00 67 1015.9
20260504204032 18 224 9.7 19.3 0.00 0.00 0.00 68 1015.9
20260504203532 19 300 9.7 19.3 0.00 0.00 0.00 66 1015.9
20260504203054 19 292 8.0 17.7 0.00 0.00 0.00 68 1015.9
20260504202532 19 306 6.4 17.7 0.00 0.00 0.00 68 1015.9
20260504202032 18 280 6.4 17.7 0.00 0.00 0.00 69 1015.8
20260504201553 18 311 9.7 17.7 0.00 0.00 0.00 69 1015.9
20260504201031 18 298 9.7 16.1 0.00 0.00 0.00 69 1016.0
20260504200531 18 301 6.4 16.1 0.00 0.00 0.00 69 1016.0
20260504200055 18 244 6.4 14.5 0.00 0.00 0.00 69 1016.0
20260504195531 18 289 6.4 14.5 0.00 0.00 0.00 70 1015.9
20260504195031 18 299 4.8 12.9 0.00 0.00 0.00 68 1015.9
20260504194548 18 241 6.4 22.5 0.00 0.00 0.00 69 1015.9
20260504194034 18 288 8.0 22.5 0.00 0.00 0.00 70 1016.0
20260504193531 18 294 6.4 16.1 0.00 0.00 0.00 70 1016.1
20260504193044 18 265 8.0 19.3 0.00 0.00 0.00 69 1016.0
20260504192530 18 249 8.0 19.3 0.00 0.00 0.00 69 1016.2
20260504192031 18 311 8.0 17.7 0.00 0.00 0.00 69 1016.1
20260504191555 18 269 8.0 16.1 0.00 0.00 0.00 71 1016.2
20260504191035 18 229 6.4 17.7 0.00 0.00 0.00 70 1016.2
20260504190532 18 290 8.0 17.7 0.00 0.00 0.00 70 1016.3
20260504185532 18 276 8.0 17.7 0.00 0.00 0.00 70 1016.2
20260504185034 17 263 6.4 17.7 0.00 0.00 0.00 71 1016.3
20260504184557 17 323 6.4 17.7 0.00 0.00 0.00 71 1016.4
20260504184034 17 243 8.0 17.7 0.00 0.00 0.00 71 1016.3
20260504183532 17 315 6.4 19.3 0.00 0.00 0.00 70 1016.3
20260504183051 17 278 8.0 19.3 0.00 0.00 0.00 71 1016.3
20260504182531 17 344 8.0 19.3 0.00 0.00 0.00 70 1016.3
20260504182033 17 284 8.0 19.3 0.00 0.00 0.00 70 1016.3
20260504181548 17 306 6.4 19.3 0.00 0.00 0.00 72 1016.2
20260504181031 17 264 8.0 19.3 0.00 0.00 0.00 72 1016.2
20260504180534 17 286 8.0 19.3 0.00 0.00 0.00 72 1016.2
20260504180045 17 296 9.7 19.3 0.00 0.00 0.00 72 1016.2
20260504175531 17 300 6.4 16.1 0.00 0.00 0.00 74 1016.3
20260504175035 17 254 4.8 16.1 0.00 0.00 0.00 74 1016.2
20260504174545 17 283 6.4 19.3 0.00 0.00 0.00 74 1016.0
20260504174034 16 290 6.4 19.3 0.00 0.00 0.00 73 1016.1
20260504173531 17 221 8.0 19.3 0.00 0.00 0.00 74 1016.1
20260504173057 16 273 8.0 17.7 0.00 0.00 0.00 75 1016.0
20260504172530 16 309 8.0 17.7 0.00 0.00 0.00 75 1016.0
20260504172033 16 295 6.4 14.5 0.00 0.00 0.00 74 1015.9
20260504171544 16 284 6.4 14.5 0.00 0.00 0.00 75 1015.9
20260504171032 16 297 8.0 16.1 0.00 0.00 0.00 74 1015.9
20260504170531 16 264 6.4 16.1 0.00 0.00 0.00 74 1015.8
20260504151037 15 0 0.0 1.6 0.00 0.00 0.00 80 1015.3
20260504150537 15 0 0.0 1.6 0.00 0.00 0.00 80 1015.3
20260504141035 14 0 0.0 1.6 0.00 0.00 0.00 81 1015.1
20260504140536 14 0 0.0 3.2 0.00 0.00 0.00 81 1015.0
20260504130537 14 0 0.0 4.8 0.00 0.00 0.00 80 1014.7
20260504110531 14 309 1.6 9.7 0.00 0.00 0.00 79 1014.7
20260504100531 14 284 3.2 9.7 0.00 0.00 0.00 80 1014.2
20260504081549 15 250 4.8 17.7 0.00 0.00 0.00 81 1014.9
20260504081031 15 250 8.0 17.7 0.00 0.00 0.00 81 1015.4
20260504080531 15 311 6.4 16.1 0.00 0.00 0.00 81 1015.5